Regional Weather Roundup
Issued by NWS

Home | Current Version | Previous Version | Text Only | Print | Product List | Glossary Off
Versions: 1 2 3 4 5 6 7 8 9 10 11 12 13 14 15 16 17 18 19 20 21 22 23 24 25 26 27 28 29 30 31 32 33 34 35 36 37 38 39 40 41 42 43 44 45 46 47 48 49 50

000
ASUS43 KTOP 181708
RWRKS

WEATHER ROUNDUP FOR KANSAS
NATIONAL WEATHER SERVICE GOODLAND KS
1200 PM CDT FRI AUG 18 2017

NOTE:  "FAIR" INDICATES FEW OR NO CLOUDS BELOW 12,000 FEET WITH NO
SIGNIFICANT WEATHER AND/OR OBSTRUCTIONS TO VISIBILITY.

KSZ001>006-013>018-027>032-041>047-181800-
NORTHWEST KANSAS

CITY           SKY/WX    TMP DP  RH WIND       PRES   REMARKS
GOODLAND       SUNNY     78  60  53 N13       30.09S
HAYS           SUNNY     82  63  52 SW15      30.01F
HILL CITY      SUNNY     80  66  62 W10       30.01F
RUSSELL        SUNNY     81  62  52 SW15      30.00S
$$

KSZ061>065-074>080-084>089-181800-
SOUTHWEST KANSAS

CITY           SKY/WX    TMP DP  RH WIND       PRES   REMARKS
DODGE CITY     SUNNY     85  56  37 SW15G22   30.05F
ELKHART          N/A     76  68  77 SW8         N/A
GARDEN CITY    SUNNY     80  61  52 SW17      30.07F
GREAT BEND     SUNNY     81  64  56 W9        30.02F
LIBERAL        SUNNY     80  64  58 SW13      30.09F
PRATT          SUNNY     86  55  34 SW16      30.01F
$$

KSZ066>073-081>083-090>101-181800-
SOUTHEAST KANSAS

CITY           SKY/WX    TMP DP  RH WIND       PRES   REMARKS
CHANUTE        CLOUDY    81  73  76 MISG      29.99S
COFFEYVILLE    CLOUDY    85  77  77 S10       29.97F HX  95
HUTCHINSON     SUNNY     79  62  56 W6        30.00S
MEDICINE LODGE   N/A     83  60  45 CALM      29.98F
NEWTON         SUNNY     81  67  62 SW3       30.01S
PARSONS        PTSUNNY   85  75  72 SW6       30.00F
WICHITA INTL   MOSUNNY   85  66  53 CALM      29.99R
WICHITA JABRA  SUNNY    N/A N/A N/A MISG      29.99S
WICHITA MCCONL SUNNY     83  64  51 W6        29.99F
WINFIELD       PTSUNNY   80  70  71 S6        29.99F
$$

KSZ007>012-019>026-033>040-048>060-102>105-181800-
NORTHEAST KANSAS

CITY           SKY/WX    TMP DP  RH WIND       PRES   REMARKS
CONCORDIA      SUNNY     83  64  52 W13       29.98F
EMPORIA        SUNNY     81  65  58 SW8       29.98S
LAWRENCE       SUNNY     81  67  62 S9        29.97S
MANHATTAN      SUNNY     85  66  53 W7        29.96F
MARYSVILLE     MOSUNNY   88  61  40 W13       29.95F
OLATHE IND     CLOUDY    75  65  70 SW6       29.99S
OLATHE EXE     CLOUDY    72  66  81 SW3       29.99F
SALINA         SUNNY     87  61  41 W8        29.98F
TOPEKA BILLARD SUNNY     86  66  51 S10       29.95F
TOPEKA FORBES  SUNNY     85  68  56 SW9       29.97F
$$



USA.gov is the U.S. government's official web portal to all federal, state and local government web resources and services.